Zurück zum Katalog

STARLINK-2588

AktivKommunikationVLEO
NORAD 48398·PAYLOAD·🇺🇸 United States

Gestartet May 4, 2021 von Cape Canaveral Space Force Station

Loading…

Nächste Überflüge (nächste 24 Stunden)

TLE

AktuellSource: CelesTrak SupGP

Epoche: Sep 15, 2026, 02:01 UTC

1 48398C 21038AX  26258.08451389  .00008526  00000+0  33278-3 0  2581
2 48398  53.0492 190.4789 0005360  22.9205  25.8362 15.25359649    15

Verfolge STARLINK-2588 in Echtzeit mit AllMySat

Download on the App Store